Meteo Giornale » Osservazioni meteo Gran Bretagna » Odiham

ore: 15:50 - Osservazioni Meteo Odiham
Lat. 51° 14' N Lon. 0° 57' W Alt. 123 metri s.l.m.

poco_nuvoloso Europe/London

22 °C

Poco Nuvoloso

Temp. 24 Ore

12 °C

23 °C

Ovest/Sud-Ovest

18.5 Km/h

Dew point 14 °C

Umidità 60 %

Visibilità  10 Km

Il sole sorge alle ore 06:52

Il sole tramonta alle ore 18:59

Data e Ora Cielo e Fenomeni T °C DP °C Um. % Pres. hPa Vis. km Vento km/h
Oggi h: 15:50 poco_nuvoloso Poco Nuvoloso 22 14 60 1015 10 O/SO 18.5
Oggi h: 15:20 poco_nuvoloso Poco Nuvoloso 23 14 56 1015 10 SO 18.5
Oggi h: 14:50 poco_nuvoloso Poco Nuvoloso 22 13 56 1015 10 SO 18.5
Oggi h: 13:20 sereno Sereno 20 13 64 1016 10 O/SO 13
Oggi h: 12:50 sereno Sereno 19 13 68 1016 10 SO 14.8
Oggi h: 12:20 sereno Sereno 18 12 67 1016 10 SO 16.7
Oggi h: 11:50 poco_nuvoloso Poco Nuvoloso 17 13 77 1017 10 SO 16.7
Oggi h: 11:20 poco_nuvoloso Poco Nuvoloso 15 12 82 1017 10 O/SO 18.5
Oggi h: 10:50 molto_nuvoloso Molto Nuvoloso 15 12 82 1017 10 O/SO 16.7
Oggi h: 10:20 molto_nuvoloso Molto Nuvoloso 14 12 87 1017 10 O/SO 16.7
Oggi h: 09:50 coperto Coperto 13 12 93 1017 10 O/SO 18.5
Oggi h: 09:20 coperto Coperto 13 12 93 1017 10 O/SO 18.5
Oggi h: 08:20 foschia Foschia 12 11 93 1017 6 O/SO 16.7
Oggi h: 07:50 foschia Foschia 12 11 93 1017 4 O/SO 14.8
Oggi h: 05:50 molto_nuvoloso Molto Nuvoloso 12 11 93 1017 10 SO 11.1
Oggi h: 04:50 molto_nuvoloso Molto Nuvoloso 13 12 93 1017 10 O/SO 14.8
Oggi h: 03:50 molto_nuvoloso Molto Nuvoloso 13 12 93 1017 10 O 9.3
Oggi h: 02:50 poco_nuvoloso Poco Nuvoloso 13 12 93 1017 10 SO 13
Oggi h: 01:50 sereno Sereno 13 12 93 1018 10 SO 13
Oggi h: 00:50 sereno Sereno 14 12 87 1018 10 O/SO 9.3
Ieri h: 23:50 sereno Sereno 14 13 93 1019 10 O/SO 13
Ieri h: 22:50 sereno Sereno 14 13 93 1019 10 SO 13
Ieri h: 22:20 poco_nuvoloso Poco Nuvoloso 15 13 87 1019 10 SO 14.8
Ieri h: 21:50 poco_nuvoloso Poco Nuvoloso 15 14 93 1019 10 SO 13
Ieri h: 21:20 poco_nuvoloso Poco Nuvoloso 16 14 87 1019 10 O/SO 13
Ieri h: 20:50 poco_nuvoloso Poco Nuvoloso 15 14 93 1019 10 SO 13
Ieri h: 20:20 poco_nuvoloso Poco Nuvoloso 16 14 87 1019 10 SO 13
Ieri h: 19:50 poco_nuvoloso Poco Nuvoloso 17 14 82 1019 10 SO 13
Ieri h: 19:20 poco_nuvoloso Poco Nuvoloso 18 14 77 1019 10 SO 13
Ieri h: 18:50 nuvoloso Nuvoloso 18 14 77 1018 10 O/SO 16.7
Ieri h: 18:20 molto_nuvoloso Molto Nuvoloso 19 14 72 1018 10 O/SO 14.8
Ieri h: 17:50 molto_nuvoloso Molto Nuvoloso 19 14 72 1019 10 O/SO 18.5
Ieri h: 17:21 nuvoloso Nuvoloso 19 15 77 1019 10 O/SO 18.5
Ieri h: 16:50 molto_nuvoloso Molto Nuvoloso 19 15 77 1019 10 O/SO 22.2